GFSGL_700_rhum_237.txt.gz
RH
39 69 96 92 97 99 99 95 85 79 78 67 83 82 96 83 99 100 99 96 100 100 89 24 28 41 52 60 63 52 41 34 28 26 28 30 32 34 37 41 47 55 61
39 41 96 100 98 100 100 100 99 98 92 89 92 86 77 93 94 99 99 99 99 98 68 29 44 58 62 61 54 43 36 30 28 27 28 30 33 36 36 39 44 53 60
42 46 61 80 100 98 100 97 95 86 94 98 99 98 97 97 98 98 99 99 99 97 72 53 90 88 69 54 47 40 34 28 30 30 30 31 34 36 37 41 44 50 55
38 40 42 55 80 100 97 99 98 91 89 98 99 98 98 99 98 98 99 99 99 98 100 88 90 60 58 42 36 35 34 33 34 34 34 34 35 37 40 41 46 51 56
42 41 39 40 57 92 100 98 93 100 99 98 98 99 99 99 99 97 98 99 99 99 95 81 65 56 51 45 39 38 38 36 36 35 36 36 37 40 42 50 53 55 57
43 46 42 39 42 64 81 100 98 100 100 100 93 98 99 98 97 98 98 98 98 97 88 53 43 48 49 45 44 47 43 39 38 38 38 40 42 46 50 55 56 57 59
32 31 36 36 35 41 68 81 99 92 100 96 99 97 96 98 98 98 98 98 98 98 78 48 41 39 44 48 48 48 46 42 41 40 41 44 48 54 58 56 60 67 85
31 26 21 17 20 30 39 82 96 99 100 99 99 94 90 93 98 98 98 98 97 92 70 56 48 45 47 48 49 49 47 46 46 46 48 53 56 58 60 63 82 86 88
28 25 20 16 10 10 24 44 64 63 84 99 99 98 95 82 95 98 98 97 98 97 91 63 56 49 46 47 50 53 55 54 55 56 58 61 62 65 66 86 95 96 85
23 22 19 15 10 6 8 22 43 64 66 90 100 96 98 98 98 96 97 98 99 97 96 81 69 58 54 47 48 53 59 64 72 79 80 72 80 93 96 97 96 90 86
17 14 15 14 9 6 5 9 25 82 84 85 100 100 100 99 98 98 99 99 99 98 98 97 92 88 76 75 69 67 72 80 85 85 88 96 97 97 98 93 94 95 94
11 9 8 9 7 5 4 5 10 29 96 100 93 98 100 99 98 98 98 98 97 98 99 99 98 98 98 97 90 84 94 97 97 97 97 97 97 99 95 93 96 96 95
9 8 7 7 8 6 5 4 6 18 47 99 98 100 94 96 98 98 99 98 98 98 98 99 99 99 98 98 98 98 97 98 98 97 98 98 96 95 95 95 96 95 95
18 16 18 16 15 11 8 4 5 11 29 59 100 99 99 98 99 97 98 98 98 98 98 99 98 98 99 98 98 98 98 98 98 98 97 96 96 96 96 95 96 95 76
31 35 37 30 25 19 15 8 5 10 20 49 92 96 92 93 100 100 100 99 98 98 98 99 98 99 100 99 98 98 97 97 98 94 96 96 95 94 95 96 92 68 34
43 48 48 39 34 23 20 15 8 6 17 30 52 76 89 100 99 100 100 96 100 98 94 99 100 100 98 98 98 98 97 96 96 96 94 94 94 95 96 93 73 29 11
51 56 57 45 29 18 14 13 12 7 10 27 37 68 87 96 97 93 94 100 100 93 96 100 100 99 97 97 98 96 96 97 96 94 95 95 96 95 91 58 19 12 10
51 55 55 46 29 22 14 10 10 8 11 29 33 90 85 98 97 95 96 92 85 85 100 100 100 99 98 95 97 96 95 95 95 95 96 95 94 87 43 18 12 10 10
51 54 56 50 35 26 17 12 10 10 34 46 76 90 91 99 99 98 93 91 94 100 100 100 98 95 95 95 99 98 94 96 96 96 96 90 60 22 16 14 12 11 11
47 54 53 49 39 29 23 15 14 20 38 80 100 100 100 99 98 92 96 100 100 100 100 100 98 96 94 95 96 95 95 97 96 93 61 32 21 17 14 12 12 12 12
49 54 51 48 39 32 24 20 28 52 70 95 97 98 99 98 97 100 99 100 100 98 97 97 96 95 95 95 96 96 96 91 52 25 19 19 18 15 13 14 13 12 13
54 52 51 46 40 37 36 43 74 94 97 100 99 99 97 97 99 99 99 97 96 96 96 96 95 95 96 96 96 96 80 33 21 20 20 19 16 14 15 15 15 16 17
59 52 48 47 54 52 57 78 98 100 99 98 97 97 97 98 98 98 97 97 96 96 96 96 96 96 96 95 77 37 22 21 20 20 19 16 14 16 17 18 18 21 23
75 63 56 54 59 72 99 99 98 99 98 97 96 97 97 97 95 96 97 96 96 96 96 96 96 94 66 29 22 22 21 21 25 25 18 16 19 20 21 22 24 27 33
100 100 100 100 100 99 100 98 97 98 97 96 96 96 96 96 96 96 96 96 96 96 95 95 63 33 27 27 33 54 71 62 33 19 18 18 19 21 25 28 33 40 41
97 97 98 98 97 99 98 97 98 97 97 97 97 96 96 96 96 96 96 95 95 94 94 94 93 94 95 95 87 56 28 19 18 18 20 21 24 29 37 44 48 48 47

GFSGL_700_rhum_243.txt.gz
RH
100 100 99 98 78 67 63 61 60 65 57 51 54 53 57 61 72 82 84 84 76 74 80 75 74 83 99 98 100 99 100 69 59 69 46 50 42 34 31 29 26 28 28
100 100 100 100 100 100 97 90 81 96 78 62 57 55 58 62 65 74 76 81 80 80 84 100 96 89 98 96 100 99 98 100 73 100 92 54 54 46 37 32 32 34 34
64 56 62 78 89 98 98 91 88 92 98 93 88 72 70 69 65 68 69 70 91 92 97 99 96 100 90 100 99 95 94 100 97 98 100 92 67 60 47 38 35 37 36
57 52 51 48 46 51 56 52 74 85 85 100 100 100 96 98 88 80 85 91 94 92 97 95 90 96 99 99 100 95 98 100 99 74 100 98 96 72 55 47 43 38 41
98 93 83 54 40 38 39 41 56 74 97 100 99 85 100 91 87 98 99 100 100 100 100 98 99 99 96 99 100 99 99 100 99 82 99 90 99 74 54 52 50 47 47
94 95 93 95 53 36 30 35 40 62 66 76 93 96 94 94 96 91 92 99 100 99 98 99 99 99 99 99 98 99 98 99 98 88 98 99 99 95 84 60 50 47 45
53 62 78 87 88 50 31 32 35 39 77 83 100 100 100 100 95 94 96 100 100 100 99 99 98 99 99 99 99 100 99 99 98 97 99 93 98 98 99 67 54 46 46
46 44 50 58 79 42 27 25 25 28 35 72 92 94 94 91 91 96 96 100 98 94 98 99 99 98 99 99 100 98 98 98 96 92 94 98 94 96 95 65 63 48 46
39 41 39 36 34 33 30 24 20 15 20 30 66 73 79 82 82 98 96 93 92 96 96 95 96 95 98 98 98 99 98 98 99 98 98 94 87 85 80 59 50 50 51
27 31 34 34 32 29 27 24 21 16 10 14 24 51 64 69 73 93 97 92 93 91 99 99 98 98 98 98 98 98 98 98 99 98 97 97 98 91 68 74 60 56 58
15 19 23 27 28 26 24 22 19 17 13 8 10 19 43 62 67 91 97 94 97 98 100 100 100 99 98 98 98 98 98 98 98 98 97 94 85 80 80 67 64 59 62
11 9 12 17 20 22 20 17 16 15 14 11 6 9 18 87 76 74 96 95 98 99 100 100 97 98 98 97 96 96 97 97 97 97 97 95 86 87 86 85 87 85 91
19 13 8 8 11 13 14 13 13 13 12 11 8 5 15 70 99 98 95 99 98 91 92 96 98 97 97 98 98 95 95 96 96 93 94 95 95 96 95 93 95 95 96
21 18 15 10 9 10 10 10 10 11 10 10 8 5 9 24 80 99 100 93 98 98 99 97 97 97 97 98 98 98 98 95 92 95 95 96 96 95 95 96 97 97 98
26 23 22 20 17 14 11 10 9 10 9 8 7 5 5 28 75 100 98 96 100 96 96 97 97 97 98 98 96 97 98 96 96 96 97 97 97 96 97 97 98 96 96
31 29 27 24 24 23 19 13 13 13 12 9 8 6 4 8 44 85 99 97 100 99 98 97 98 98 98 98 97 97 97 98 98 98 98 98 98 97 97 97 96 96 96
40 36 31 29 32 33 36 35 29 25 17 15 10 8 5 6 30 66 77 85 96 97 97 97 97 97 97 98 98 98 98 98 98 98 97 97 96 96 96 96 96 96 96
40 36 34 34 38 53 56 53 42 32 23 16 12 10 7 7 22 86 88 77 72 74 99 100 99 100 99 97 97 98 98 98 98 98 98 97 96 96 96 96 96 96 95
39 38 40 52 56 59 70 59 38 24 18 14 10 9 9 9 35 47 56 55 54 99 100 100 100 100 98 98 96 96 97 97 98 98 98 96 96 96 96 97 96 96 96
47 53 55 52 58 73 70 51 32 26 18 12 9 9 13 27 46 73 49 54 70 100 99 99 99 99 98 98 98 97 97 100 100 98 95 95 94 94 96 98 97 95 87
48 50 48 56 68 76 73 55 38 31 23 16 13 18 39 80 88 78 99 100 99 99 98 98 98 100 100 98 100 97 96 98 96 94 94 96 95 96 100 99 94 84 39
49 46 47 57 73 68 64 49 40 35 30 32 40 65 87 97 96 100 100 98 98 97 96 96 97 97 97 97 97 99 96 96 97 97 98 97 98 100 98 87 57 30 22
77 72 72 71 68 65 55 50 47 47 58 84 99 100 100 100 97 97 97 95 95 96 97 97 97 97 97 97 97 97 97 97 96 98 100 99 96 92 69 45 29 23 21
99 94 88 83 74 64 60 62 65 85 100 100 100 99 98 96 96 95 96 96 96 97 96 96 96 97 97 96 96 96 96 97 99 99 97 90 68 40 31 26 25 26 24
100 100 100 96 85 78 77 86 98 98 99 99 98 98 98 97 97 97 97 97 98 97 96 96 96 96 96 96 96 97 97 98 97 91 76 47 41 42 43 61 54 30 21
98 99 100 100 100 100 100 99 98 98 98 98 98 98 98 98 98 97 97 97 97 97 96 96 96 96 97 97 97 97 95 94 92 82 75 82 91 93 78 45 28 26 32

GFSGL_700_rhum_249.txt.gz
RH
96 97 98 99 99 99 99 88 92 90 87 85 76 69 63 59 59 62 84 69 75 77 69 65 64 63 63 75 81 88 85 98 92 93 56 97 81 65 87 100 98 49 41
95 95 94 99 98 98 98 99 100 97 91 82 72 66 64 68 65 60 54 85 65 61 90 65 76 88 87 76 78 86 100 100 98 82 89 71 87 75 91 92 100 100 81
93 97 96 97 97 100 98 99 99 98 96 91 86 69 65 64 67 67 65 66 99 62 60 98 93 65 97 91 100 88 97 100 84 96 99 75 90 91 80 100 100 100 98
93 95 95 96 99 96 99 98 100 100 100 100 100 91 92 96 89 92 93 82 86 87 88 83 85 74 76 73 86 93 100 98 96 78 71 99 95 95 99 98 97 99 96
93 95 93 93 94 91 91 98 98 99 99 100 98 100 100 100 100 100 100 99 91 100 96 94 83 67 71 71 67 80 91 98 98 90 86 96 95 88 84 91 95 96 99
100 96 92 100 97 96 95 94 93 90 82 90 71 85 99 94 99 94 99 92 99 81 100 100 88 84 79 81 77 97 98 99 100 99 98 81 81 100 99 99 100 98 98
70 92 91 78 94 93 87 51 39 38 38 38 40 59 73 92 94 99 98 99 100 94 99 100 96 85 84 83 93 98 99 100 100 98 95 88 78 99 94 98 98 94 99
27 47 85 83 67 81 84 90 89 89 86 74 59 52 37 40 55 73 94 98 100 100 100 99 96 89 87 90 98 100 100 100 100 99 98 99 97 100 99 99 99 99 99
17 24 31 80 74 51 64 68 80 77 75 74 71 71 71 70 40 64 81 100 96 100 98 95 83 92 89 85 95 99 99 100 100 100 99 99 99 98 98 99 99 100 99
21 14 19 23 47 76 40 48 53 71 59 40 29 36 44 46 29 44 82 90 100 94 91 78 94 91 85 93 89 95 92 94 97 99 99 99 99 99 98 98 98 99 99
40 25 13 14 18 27 47 36 39 46 66 46 29 22 20 17 18 23 48 77 76 80 79 88 92 89 90 97 98 98 100 94 80 92 100 99 98 98 98 98 98 97 98
45 41 32 16 10 14 22 29 30 34 35 44 26 22 19 16 12 11 16 22 51 62 65 65 95 92 91 95 88 83 82 79 87 88 96 98 98 98 99 99 98 97 98
48 42 35 28 16 10 11 16 19 22 26 24 22 20 18 16 14 10 7 11 17 58 61 71 86 81 94 83 87 81 69 72 80 94 100 97 98 98 98 98 97 97 98
49 44 38 31 25 13 8 9 11 13 15 17 18 17 15 14 13 12 8 11 26 54 75 83 89 90 88 91 98 82 79 80 86 94 97 97 98 97 98 98 98 98 98
58 55 51 42 34 23 12 9 8 9 8 10 11 12 12 11 11 11 10 7 10 39 44 90 99 80 92 100 100 85 85 95 96 97 98 98 95 94 98 99 98 97 97
72 65 60 55 46 30 19 14 11 10 8 7 7 8 9 9 9 10 9 8 7 23 53 85 92 94 94 96 97 99 98 97 98 97 100 97 95 92 95 96 96 96 97
85 73 69 64 53 35 23 20 19 14 12 10 8 8 7 8 9 9 9 8 6 12 23 66 95 100 98 95 95 90 93 95 95 97 97 95 99 100 97 97 97 97 97
82 67 59 53 42 32 27 24 22 22 19 17 16 11 9 9 10 10 9 8 6 10 15 34 75 96 98 96 97 95 93 94 93 90 87 88 95 99 99 98 97 97 96
83 60 51 46 40 34 31 31 30 28 28 30 28 23 16 16 14 12 10 9 7 11 44 20 60 68 65 72 84 86 85 85 94 90 90 90 91 95 97 98 97 96 96
76 55 46 41 37 37 41 47 54 60 66 62 51 39 28 20 16 13 12 11 18 25 24 69 88 68 46 58 71 86 93 96 94 94 97 98 97 98 98 96 95 96 96
77 59 59 59 58 56 57 67 79 81 75 51 36 30 23 18 16 15 18 25 46 50 80 98 68 44 41 73 91 94 95 98 96 95 95 96 96 96 97 99 98 97 96
100 77 56 54 61 70 85 87 81 78 61 47 39 36 32 40 57 64 67 68 84 94 87 66 62 74 90 97 100 100 100 98 97 97 98 98 97 96 97 97 96 95 94
100 100 100 98 95 95 91 83 71 64 62 64 72 83 92 97 100 100 100 99 99 89 88 93 97 100 100 98 98 99 98 98 98 97 96 96 95 95 94 96 97 95 96
98 98 98 99 98 99 95 93 92 95 99 100 100 99 100 100 100 100 100 100 99 100 100 98 98 98 97 97 97 97 97 97 97 96 96 97 97 96 96 96 97 96 94
98 98 98 98 99 100 100 100 100 100 100 99 99 99 99 99 99 98 100 99 98 98 98 97 97 98 97 96 97 97 96 95 96 96 96 97 98 98 98 97 94 82 78
98 99 98 98 98 99 100 100 100 99 99 99 99 98 98 98 100 99 99 98 96 97 96 95 96 98 98 98 97 97 97 95 96 98 99 100 99 98 97 96 96 96 96

GFSGL_700_rhum_255.txt.gz
RH
95 96 94 95 100 98 100 96 100 92 72 84 84 86 81 80 79 73 64 65 73 68 69 81 91 93 95 99 100 100 99 99 92 85 86 70 75 57 65 68 51 82 72
96 96 96 96 94 99 99 100 98 93 98 100 100 100 92 81 65 61 60 57 55 60 69 74 84 78 91 86 100 100 99 90 80 81 72 82 92 81 72 54 99 85 83
96 96 96 96 96 97 94 99 99 99 99 100 99 99 98 74 69 67 69 70 65 63 73 70 75 75 70 66 70 70 72 96 98 65 85 100 97 100 82 72 100 96 67
94 96 95 96 96 96 100 94 100 100 99 100 96 99 99 98 72 70 68 61 66 74 79 81 82 75 71 65 70 81 90 92 68 66 85 93 99 88 82 80 82 91 84
78 94 96 95 97 98 94 94 98 94 97 98 100 99 95 100 98 80 75 68 66 68 81 85 82 80 84 84 76 79 81 72 66 87 92 100 100 100 97 90 83 87 80
33 92 92 93 94 94 96 97 96 98 99 97 98 98 99 99 99 91 88 78 65 67 73 70 66 69 71 75 77 79 100 99 80 92 99 98 98 54 71 93 99 100 98
30 39 68 58 95 96 96 95 93 96 99 98 99 100 99 97 97 93 81 76 86 98 100 100 100 86 76 82 90 100 87 99 94 74 58 53 55 62 88 100 95 93 98
31 30 29 40 34 94 96 95 96 95 96 98 98 97 99 92 94 100 90 82 84 84 100 99 97 100 100 100 100 100 100 93 74 78 64 68 82 100 97 92 97 99 92
32 32 27 25 24 28 88 96 93 92 92 95 92 93 98 98 100 100 100 99 92 91 95 100 100 93 100 94 100 100 100 100 100 83 81 83 87 88 98 100 99 100 98
32 33 37 28 22 21 25 83 94 94 95 95 97 95 92 76 92 96 70 69 62 60 70 82 87 89 94 100 100 100 100 98 95 88 89 83 81 81 95 100 100 100 99
32 33 36 35 28 21 21 23 62 70 74 92 93 92 91 95 82 75 68 68 65 64 61 60 58 59 62 98 100 98 96 99 91 84 79 75 83 85 95 100 100 100 100
39 36 34 37 35 32 22 20 20 50 56 53 56 67 84 81 75 75 76 53 50 47 44 49 56 67 81 98 97 96 98 83 84 87 73 82 88 88 92 87 80 87 89
61 53 41 38 35 35 30 20 15 17 32 57 43 54 66 70 67 56 58 42 28 27 20 23 35 52 73 89 92 93 91 88 78 78 87 96 82 73 74 76 78 90 98
74 69 57 46 41 35 31 27 21 16 12 20 57 41 38 50 67 55 40 25 22 18 16 12 15 23 36 60 71 74 83 75 86 79 92 99 93 80 79 80 82 92 100
80 69 59 49 44 37 32 28 25 22 18 12 14 31 36 30 34 47 32 22 19 17 15 13 11 15 62 72 74 87 77 70 75 88 95 97 91 84 83 84 89 87 93
84 74 63 51 45 37 32 30 25 22 20 17 12 12 15 20 20 22 23 21 17 14 14 13 14 19 49 24 43 49 50 90 94 98 100 100 97 89 94 92 92 98 100
94 88 79 65 55 50 44 36 31 24 25 21 16 12 10 12 13 12 13 14 13 12 12 11 11 15 14 10 25 34 74 94 98 100 100 100 98 98 97 97 97 100 100
100 92 78 70 59 54 55 51 49 44 35 26 22 16 13 11 10 9 9 9 10 10 10 10 11 10 9 14 33 70 96 100 99 97 99 98 97 97 97 97 97 98 100
100 91 69 61 57 56 54 51 46 40 34 29 26 23 19 14 11 9 8 8 9 9 9 10 10 9 9 11 27 80 100 100 99 99 97 98 96 95 96 96 96 96 97
100 80 67 57 51 48 47 45 42 40 35 36 37 35 33 24 18 15 13 13 10 9 10 11 10 11 9 8 21 32 82 100 98 97 92 81 80 94 97 96 96 96 96
100 97 79 73 73 70 68 69 71 72 74 76 74 69 61 47 39 32 25 20 18 17 15 14 13 12 11 21 36 52 68 65 56 48 62 83 96 100 98 97 97 96 96
98 100 100 100 100 100 100 99 94 89 86 84 74 59 49 46 41 38 36 33 29 26 32 22 35 42 58 51 83 93 66 45 38 59 82 98 99 98 98 97 97 97 96
98 98 98 98 99 99 98 97 92 87 82 81 82 85 89 98 100 100 100 94 84 72 62 55 58 73 83 86 79 62 60 76 88 96 99 99 99 98 97 97 96 95 95
99 98 98 98 98 97 98 98 98 97 96 95 95 100 100 100 100 100 99 96 100 100 100 99 99 98 93 87 88 94 98 100 100 100 98 98 97 96 96 96 96 96 96
100 99 99 98 99 98 98 98 98 98 97 97 98 99 98 98 99 99 97 95 96 98 100 99 99 99 99 100 99 99 100 100 100 99 98 96 96 95 95 96 96 96 96
100 100 99 100 99 99 99 99 99 98 98 98 97 97 97 97 98 99 100 98 98 100 99 99 100 100 100 99 98 97 98 98 98 98 97 96 95 96 97 98 98 96 94

GFSGL_700_rhum_258.txt.gz
RH
96 96 97 97 100 91 88 78 65 56 58 48 46 47 73 76 64 71 68 75 70 59 61 70 70 74 62 73 77 98 98 97 95 100 100 99 98 100 79 66 78 74 74
82 97 94 100 100 100 100 100 79 68 60 41 40 47 79 75 66 69 68 65 66 67 65 72 75 73 75 86 85 99 98 100 100 100 100 100 93 83 77 68 80 75 74
46 90 96 96 94 93 95 97 100 90 71 97 38 72 97 88 68 69 70 68 69 70 72 72 79 81 76 75 87 90 95 97 95 99 100 100 67 82 82 67 93 98 84
32 39 93 96 95 97 96 98 95 98 99 100 82 85 79 90 79 77 78 81 80 78 75 74 79 76 70 80 88 84 78 79 83 86 82 99 91 94 83 89 91 83 100
32 34 57 95 96 97 96 96 96 96 98 100 95 98 93 81 100 96 99 88 82 77 72 68 67 71 74 74 75 75 72 74 76 78 79 89 89 68 66 94 96 98 82
34 34 37 87 96 96 96 97 96 96 98 95 98 100 100 98 99 98 98 98 86 83 78 74 73 75 83 86 84 80 77 78 76 86 84 79 76 73 91 100 96 86 63
34 34 36 42 92 96 96 96 97 96 95 98 97 100 99 97 98 99 99 98 88 82 76 97 92 91 94 96 96 90 91 92 86 87 80 99 98 96 98 90 89 77 56
34 33 35 37 44 83 94 95 96 96 98 96 98 97 99 99 98 98 98 97 92 95 97 76 77 84 89 90 82 83 76 89 89 93 100 100 99 94 67 57 67 78 90
38 32 33 33 36 35 45 88 97 96 97 94 95 99 96 98 98 98 95 98 100 100 97 96 90 95 93 90 96 89 77 75 87 96 100 100 94 88 83 92 88 88 82
46 35 33 33 36 36 31 40 81 96 95 96 99 97 100 97 98 99 98 98 99 100 89 84 90 93 99 99 93 86 84 93 100 100 100 100 100 100 97 98 97 89 98
59 42 35 36 35 38 36 30 27 61 97 96 94 93 96 96 96 98 98 99 100 100 100 100 98 93 87 97 89 79 73 100 100 100 100 100 100 100 100 100 100 98 100
77 55 42 40 37 37 37 37 30 23 69 95 96 96 96 94 96 97 96 94 94 98 95 82 72 72 67 62 76 84 86 100 100 100 100 100 100 100 100 100 99 97 88
94 81 65 52 43 39 35 33 32 26 20 59 82 89 93 94 96 97 93 86 66 64 65 64 63 60 58 61 60 72 89 100 100 100 100 100 100 100 98 99 96 82 73
94 88 78 65 57 48 40 35 31 28 23 18 28 58 61 60 75 90 90 75 44 50 43 37 38 40 38 41 48 57 75 99 100 100 100 100 97 98 100 98 100 83 77
90 85 78 71 62 53 46 38 33 26 24 21 15 18 48 46 39 54 70 67 64 49 31 34 21 18 16 18 24 29 50 62 72 88 98 98 92 82 100 99 100 92 89
90 89 82 74 70 54 45 38 32 30 24 22 19 14 13 25 41 34 33 45 54 42 34 24 17 15 14 13 17 13 36 49 73 91 92 97 99 100 100 100 100 99 100
92 92 94 86 66 58 50 45 38 31 28 23 21 18 13 11 13 27 24 23 30 33 24 17 15 14 13 13 15 12 15 19 26 26 51 100 100 100 100 100 99 97 97
100 89 75 72 66 60 56 52 47 44 39 34 28 23 17 12 10 11 15 17 16 18 17 15 13 12 12 12 12 11 9 12 24 70 100 100 100 100 100 100 100 98 98
100 90 79 66 64 62 61 59 58 53 46 41 35 29 23 16 11 10 9 11 11 9 9 9 10 10 10 10 10 10 12 19 22 84 100 98 100 100 98 98 96 92 96
98 98 90 77 68 64 63 60 55 49 45 43 39 37 30 22 17 14 12 10 9 8 8 8 8 9 11 14 10 9 13 25 22 56 94 97 98 98 97 86 69 90 96
98 100 100 100 100 100 100 100 97 94 86 80 74 70 61 47 36 27 23 16 14 13 14 12 10 10 10 12 10 11 16 20 18 23 48 85 90 78 63 61 88 97 98
98 97 96 95 96 96 95 95 87 81 78 77 76 72 62 56 51 46 44 42 36 29 27 25 20 17 15 14 14 25 49 34 46 54 50 46 39 56 80 93 97 98 98
100 100 99 98 96 94 94 94 96 93 86 85 87 86 88 96 98 95 96 91 80 55 40 46 46 40 42 40 38 51 56 80 69 55 46 51 71 94 100 99 99 98 96
100 100 100 100 99 100 99 100 100 98 97 95 96 98 98 99 99 100 98 96 98 97 88 85 98 92 86 80 91 79 70 71 73 93 97 98 100 99 99 98 98 98 97
100 100 99 100 99 100 100 100 100 100 100 100 99 99 97 98 95 96 96 97 98 100 100 98 98 100 100 100 94 89 91 96 100 100 100 99 97 96 96 96 96 97 96
100 100 100 100 100 100 100 100 100 99 99 99 98 98 98 97 96 95 95 97 99 100 100 97 96 100 100 100 100 98 98 98 99 98 99 97 96 96 95 95 96 97 97